Location: Bergnerzell
(49.1816°N, 10.2565°E)
Time: 04:12:54
(UTC+00:00)

IDEFIX/ARIANE 42P - Pass Details

Date: 16 August 2024
Orbit: 782 x 799 km, 98.5° (Epoch: 08 September)

Event Time Altitude Azimuth Distance (km) Brightness Sun altitude
Rises 03:03:11 0° 1° (N) 3,285 6.3 -10.8°
Reaches altitude 10° 03:06:32 10° 338° (NNW) 2,354 5.2 -10.3°
Maximum altitude 03:09:13 14° 307° (NW) 2,056 4.5 -10.0°
Drops below altitude 10° 03:11:55 10° 275° (W) 2,351 4.6 -9.6°
Enters shadow 03:12:50 - 267° (W) 2,562 4.7 -9.5°
